Time,TemperatureF,DewpointF,PressureIn,WindDirection,WindDirectionDegrees,WindSpeedMPH,WindSpeedGustMPH,Humidity,HourlyPrecipIn,Conditions,Clouds,dailyrainin,SoftwareType,DateUTC
2016-07-27 00:34:00,75.0,71.0,-100.00,North,-9999,0.0,-999.0,87,-99.99,,,-99.99,,2016-07-27 05:34:00,
2016-07-27 01:25:00,74.0,71.0,-100.00,North,-9999,0.0,3.0,89,-99.99,,,-99.99,,2016-07-27 06:25:00,
2016-07-27 01:35:00,74.0,71.0,-100.00,North,-9999,0.0,3.0,89,-99.99,,,-99.99,,2016-07-27 06:35:00,
2016-07-27 01:45:00,74.0,71.0,-100.00,North,-9999,0.0,3.0,89,-99.99,,,-99.99,,2016-07-27 06:45:00,
2016-07-27 02:25:00,73.0,70.0,-100.00,North,-9999,0.0,3.0,91,-99.99,,,-99.99,,2016-07-27 07:25:00,
2016-07-27 02:37:00,73.0,70.0,-100.00,North,-9999,0.0,3.0,91,-99.99,,,-99.99,,2016-07-27 07:37:00,
2016-07-27 02:54:00,73.0,70.0,-100.00,North,-9999,0.0,3.0,91,-99.99,,,-99.99,,2016-07-27 07:54:00,
2016-07-27 03:23:00,73.0,70.0,-100.00,NW,310,1.0,2.0,91,-99.99,,,-99.99,,2016-07-27 08:23:00,
2016-07-27 03:35:00,73.0,70.0,-100.00,NW,310,1.0,2.0,91,-99.99,,,-99.99,,2016-07-27 08:35:00,
2016-07-27 03:44:00,73.0,70.0,-100.00,NW,310,1.0,2.0,91,-99.99,,,-99.99,,2016-07-27 08:44:00,
2016-07-27 03:54:00,73.0,70.0,-100.00,NW,310,1.0,2.0,91,-99.99,,,-99.99,,2016-07-27 08:54:00,
2016-07-27 03:58:00,72.0,69.0,-100.00,WSW,256,1.0,-999.0,91,-99.99,,,-99.99,,2016-07-27 08:58:00,
2016-07-27 04:23:00,72.0,69.0,-100.00,WSW,256,1.0,2.0,91,-99.99,,,-99.99,,2016-07-27 09:23:00,
2016-07-27 04:58:00,72.0,70.0,-100.00,SW,227,1.0,-999.0,92,-99.99,,,-99.99,,2016-07-27 09:58:00,
2016-07-27 05:31:00,72.0,70.0,-100.00,SW,227,1.0,-999.0,92,-99.99,,,-99.99,,2016-07-27 10:31:00,
2016-07-27 05:40:00,72.0,70.0,-100.00,SW,227,-999.9,-999.0,92,-99.99,,,-99.99,,2016-07-27 10:40:00,
2016-07-27 05:52:00,72.0,70.0,-100.00,SW,227,1.0,-999.0,92,-99.99,,,-99.99,,2016-07-27 10:52:00,
2016-07-27 06:32:00,73.0,71.0,-100.00,North,-9999,0.0,-999.0,92,-99.99,,,-99.99,,2016-07-27 11:32:00,
2016-07-27 06:42:00,73.0,71.0,-100.00,North,-9999,-999.9,-999.0,92,-99.99,,,-99.99,,2016-07-27 11:42:00,
2016-07-27 06:48:00,73.0,71.0,-100.00,North,-9999,0.0,-999.0,92,-99.99,,,-99.99,,2016-07-27 11:48:00,
2016-07-27 06:58:00,73.0,71.0,-100.00,North,-9999,0.0,2.0,92,-99.99,,,-99.99,,2016-07-27 11:58:00,
2016-07-27 07:27:00,73.0,71.0,-100.00,North,-9999,0.0,2.0,92,-99.99,,,-99.99,,2016-07-27 12:27:00,
2016-07-27 07:39:00,73.0,71.0,-100.00,North,-9999,0.0,2.0,92,-99.99,,,-99.99,,2016-07-27 12:39:00,
2016-07-27 07:49:00,73.0,71.0,-100.00,North,-9999,0.0,-999.0,92,-99.99,,,-99.99,,2016-07-27 12:49:00,
2016-07-27 08:27:00,74.0,72.0,-100.00,SE,126,1.0,5.0,92,-99.99,,,-99.99,,2016-07-27 13:27:00,
2016-07-27 08:39:00,74.0,72.0,-100.00,SE,126,1.0,5.0,92,-99.99,,,-99.99,,2016-07-27 13:39:00,
2016-07-27 08:45:00,74.0,72.0,-100.00,SE,126,1.0,5.0,92,-99.99,,,-99.99,,2016-07-27 13:45:00,
2016-07-27 08:55:00,74.0,72.0,-100.00,SE,126,1.0,-999.0,92,-99.99,,,-99.99,,2016-07-27 13:55:00,
2016-07-27 09:23:00,75.0,73.0,-100.00,SE,127,1.0,-999.0,92,-99.99,,,-99.99,,2016-07-27 14:23:00,
2016-07-27 09:34:00,75.0,73.0,-100.00,SE,127,1.0,5.0,92,-99.99,,,-99.99,,2016-07-27 14:34:00,
2016-07-27 09:44:00,75.0,73.0,-100.00,SE,127,1.0,5.0,92,-99.99,,,-99.99,,2016-07-27 14:44:00,
2016-07-27 09:54:00,75.0,73.0,-100.00,SE,127,1.0,5.0,92,-99.99,,,-99.99,,2016-07-27 14:54:00,